Longdongbao Airport
ZUGY : now visible

Airfield :











YOU CAN JOIN US ON...

 
LOGIN :

Register | Disclaimer

   EN    FR    IT 

 









Legend :    VFR   Marginal VFR   IFR   Intensive IFR   Very Intensive IFR
Visi :
Ceiling :
>= 8 km
>= 3000ft
5 to 8 km
1000 to 3000 ft
1500m to 5 km
500 to 1000 ft
800 to 1500m
200 to 500 ft
< 800m
< 200 ft
Symbols :   Thunderstorms  Fog  Heavy snow  Heavy precipitations  Wind > 20 kt







- Airport Elevation : 3736 ft
- IATA code : KWE


ZUGY - Longdongbao

CURRENT METAR :
  • 181500Z 15002MPS CAVOK 26/19 Q1011 NOSIG

EXPIRED METARs :
  • 181400Z 18003MPS CAVOK 26/19 Q1010 NOSIG
  • 181300Z 15003MPS CAVOK 27/18 Q1009 NOSIG
  • 181200Z 16003MPS CAVOK 28/18 Q1008 NOSIG

TAF TAF ZUGY
Valid from the 18 at 12:00 until the 19 at 12:00 UTC


180901Z 1812/1912 18004MPS 6000 SCT030 TX34/1907Z TN22/1821Z
No reported NOTAMs for that airfield.



MET'MAP, your aeronautical weather chart ! - Copyright ORBIFLY December 2007 - Disclaimer

ORBIFLY MET'MAP TEAM :

Programming & Development : Alexandra Zaïnal
Concept & Development : Baudouin d'Aumeries
Co-Development & Prog : Marc-Olivier Méhu
Technical & hardware support : Manuel Goepfert

Contact : metmap@orbifly.com




SOURCES & CREDITS :

   NOAA       Earth
Advisory